IK0AOC Weather Reports


time (UTC)temp
C
wind
direction
speed
KPH
gust
KPH
rain 1hr
cm
rain 24hr
cm
rain mn
cm
humidity
%
barometer
mb
20260504003505 13 71 1.6 4.8 0.00 0.00 0.00 83 1018.8
20260504003008 13 71 0.0 0.0 0.00 0.00 0.00 82 1018.8
20260504002005 13 70 0.0 12.9 0.00 0.00 0.00 82 1018.7
20260504001505 13 71 6.4 12.9 0.00 0.00 0.00 82 1018.7
20260504001006 13 69 1.6 12.9 0.00 0.00 0.00 82 1018.7
20260504000008 13 75 8.0 12.9 0.00 0.00 0.00 82 1018.9
20260503235505 14 76 9.7 14.5 0.00 0.00 0.00 82 1018.9
20260503235005 14 81 11.3 16.1 0.00 0.00 0.00 82 1019.0
20260503233008 13 89 6.4 11.3 0.00 0.00 0.00 84 1019.3
20260503232506 13 229 4.8 8.0 0.00 0.00 0.00 83 1019.3
20260503231505 13 238 3.2 4.8 0.00 0.00 0.00 83 1019.4
20260503230505 13 237 0.0 4.8 0.00 0.00 0.00 83 1019.4
20260503230008 13 238 1.6 4.8 0.00 0.00 0.00 82 1019.5
20260503225506 13 238 0.0 0.0 0.00 0.00 0.00 81 1019.5
20260503225005 14 235 0.0 4.8 0.00 0.00 0.00 81 1019.5
20260503224505 14 238 3.2 4.8 0.00 0.00 0.00 82 1019.6
20260503221505 14 238 1.6 3.2 0.00 0.00 0.00 79 1019.7
20260503220505 15 238 0.0 1.6 0.00 0.00 0.00 81 1019.6
20260503220008 14 238 0.0 0.0 0.00 0.00 0.00 81 1019.5
20260503214006 14 236 0.0 0.0 0.00 0.00 0.00 81 1019.4
20260503213505 14 238 0.0 0.0 0.00 0.00 0.00 82 1019.4
20260503213004 14 238 0.0 0.0 0.00 0.00 0.00 82 1019.4
20260503212505 14 238 0.0 3.2 0.00 0.00 0.00 81 1019.4
20260503212004 14 236 0.0 3.2 0.00 0.00 0.00 81 1019.4
20260503210504 15 238 0.0 0.0 0.00 0.00 0.00 79 1019.3
20260503205505 15 237 0.0 0.0 0.00 0.00 0.00 79 1019.3
20260503204505 15 237 0.0 0.0 0.00 0.00 0.00 79 1019.4
20260503203505 15 238 0.0 0.0 0.00 0.00 0.00 78 1019.4
20260503203005 15 238 0.0 0.0 0.00 0.00 0.00 78 1019.4
20260503202505 15 236 0.0 0.0 0.00 0.00 0.00 78 1019.4
20260503202004 15 237 0.0 0.0 0.00 0.00 0.00 78 1019.4
20260503201504 15 238 0.0 0.0 0.00 0.00 0.00 78 1019.4
20260503201005 15 238 0.0 0.0 0.00 0.00 0.00 78 1019.4
20260503200504 15 237 0.0 0.0 0.00 0.00 0.00 78 1019.3
20260503193504 15 238 0.0 0.0 0.00 0.00 0.00 76 1018.9
20260503192505 16 243 0.0 0.0 0.00 0.00 0.00 75 1018.9
20260503192004 16 244 0.0 1.6 0.00 0.00 0.00 75 1018.9
20260503191006 16 242 0.0 0.0 0.00 0.00 0.00 74 1018.8
20260503190504 16 242 0.0 4.8 0.00 0.00 0.00 74 1018.7
20260503190008 16 244 3.2 8.0 0.00 0.00 0.00 71 1018.6
20260503184504 17 267 0.0 3.2 0.00 0.00 0.00 71 1018.5
20260503183504 17 268 0.0 0.0 0.00 0.00 0.00 71 1018.5
20260503182505 17 269 0.0 0.0 0.00 0.00 0.00 71 1018.5
20260503182005 17 261 4.8 22.5 0.00 0.00 0.00 71 1018.5
20260503174504 17 260 9.7 35.4 0.00 0.00 0.00 67 1018.4
20260503172505 18 274 37.0 69.2 0.00 0.00 0.00 64 1017.9
20260503172004 18 268 22.5 57.9 0.00 0.00 0.00 62 1017.9
20260503170503 18 268 20.9 57.9 0.00 0.00 0.00 59 1017.9
20260503081005 18 321 9.7 20.9 0.00 0.00 0.00 57 1020.8
20260503071504 17 340 9.7 19.3 0.00 0.00 0.00 63 1021.1
20260503054005 13 45 4.8 9.7 0.00 0.00 0.00 72 1020.9
20260503053008 12 26 0.0 9.7 0.00 0.00 0.00 73 1020.8
20260503052506 12 28 3.2 19.3 0.00 0.00 0.00 74 1020.8
20260503051505 12 25 14.5 19.3 0.00 0.00 0.00 75 1020.8
20260503051006 12 34 14.5 19.3 0.00 0.00 0.00 77 1020.7
20260503050505 12 26 4.8 19.3 0.00 0.00 0.00 77 1020.6
20260503050008 12 35 11.3 19.3 0.00 0.00 0.00 78 1020.6
20260503045005 11 37 9.7 19.3 0.00 0.00 0.00 79 1020.6
20260503044505 11 44 11.3 16.1 0.00 0.00 0.00 79 1020.5
20260503043008 11 57 9.7 19.3 0.00 0.00 0.00 80 1020.5
20260503042505 12 51 11.3 16.1 0.00 0.00 0.00 79 1020.5
20260503041006 11 64 9.7 12.9 0.00 0.00 0.00 82 1020.5
20260503040505 11 41 8.0 9.7 0.00 0.00 0.00 82 1020.5
20260503035506 11 41 0.0 0.0 0.00 0.00 0.00 82 1020.5
20260503034504 11 41 0.0 0.0 0.00 0.00 0.00 83 1020.5
20260503033505 11 41 8.0 14.5 0.00 0.00 0.00 82 1020.4
20260503032005 11 154 0.0 0.0 0.00 0.00 0.00 82 1020.5
20260503030504 11 153 0.0 0.0 0.00 0.00 0.00 82 1020.5
20260503025005 11 153 0.0 0.0 0.00 0.00 0.00 81 1020.5
20260503023505 12 154 4.8 9.7 0.00 0.00 0.00 80 1020.4
20260503023007 12 154 4.8 9.7 0.00 0.00 0.00 81 1020.5
20260503020007 11 165 8.0 11.3 0.00 0.00 0.00 82 1020.5
20260503015505 11 164 4.8 9.7 0.00 0.00 0.00 81 1020.5
20260503014505 12 192 0.0 0.0 0.00 0.00 0.00 82 1020.5
20260503014005 12 192 0.0 0.0 0.00 0.00 0.00 82 1020.5
20260503013505 12 188 4.8 12.9 0.00 0.00 0.00 77 1020.7
20260503010504 13 129 4.8 8.0 0.00 0.00 0.00 79 1020.8
20260503004005 12 127 3.2 12.9 0.00 0.00 0.00 79 1020.9